DELTA 1 DEB, 42568

Orbit data source: Space-Track

DELTA 1 DEB, 42568 is space debris in SSO originally from a launch on Sun, 23 Jul 1972 UTC launched from the Air Force Western Test Range (AFWTR). Debris objects in space refer to the collection of defunct objects orbiting the Earth. Examples of debris include non-operational satellites, rocket bodies, and fragments generated from explosions, collisions, or faulty payload assembly.

Loading next visibility...
Identifier
42568, 1972-058KB
Orbit
SSO
Country
Flag of USUS
Related business
Manufacturer
Unknown
Mission
Spacecraft
Bus & Motor
Unknown
Mass
Unknown
Launch date (UTC)
1972-07-23 (53 years ago)
Launch vehicle
Unknown
Launch site
Air Force Western Test Range (AFWTR)
Object type
Payload
Rocket body
Debris
Shape & HBR
Unknown shape, 0.1 m
Radar Cross Section
Small (<0.1 m²)

Expand to show TLE details & history
Last TLE update: 2 days ago

TLE from 2 days ago
0 DELTA 1 DEB
1 42568U 72058KB  25350.80538769  .00000509  00000-0  25922-3 0  9995
2 42568  98.9559  15.4683 0027780  40.5506 319.7732 14.20080392 53855
Epoch: 2025-12-16T19:19Z
TLE epoch observation values (Epoch: 2025-12-16T19:19:45.496Z)
Latitude
-0.00007°
Longitude
-0.15558°
Altitude
812.73 km
Speed
7.455 km/s
True Right ascension
01h 01m 52s
True Declination
0° 00' 00"
Sunlit
Object was in daylight at epoch
Visualization orbit readout
Latitude
Unknown
Longitude
Unknown
Altitude
Unknown
Speed
Unknown
Apparent Right ascension
Unknown
Apparent Declination
Unknown
Sunlit
N/A
Visualization observer readout
Local Sidereal Time
08:07:10
Azimuth
Unknown
Elevation
Unknown
Doppler factor
Unknown
Orbital elements
Apogee altitude
842.254 km
Perigee altitude
802.249 km
Semi-major axis
7,200.388 km
Eccentricity
0.00278
Inclination
98.9559°
RAAN
15.4683°
Arg. of periapsis
40.5506°
True anomaly
319.56707°
Mean anomaly
319.7732°
Eccentric anomaly
319.67019°
Mean motion
3.5523 °/min
Orbital period
101.34 mins
BSTAR
0.00025922
Loading maneuver chart data...
Computing Atmospheric mass density...
Loading historical data...
Loading historical data...
Loading historical data...
Loading historical data...
Loading historical data...
Loading historical data...
Loading historical data...

Documentation

Showing up to 5 results
|